TimeCST,TemperatureF,Dew PointF,Humidity,Sea Level PressureIn,VisibilityMPH,Wind Direction,Wind SpeedMPH,Gust SpeedMPH,PrecipitationIn,Events,Conditions,WindDirDegrees,DateUTC
12:15 AM,41.0,36.7,85,30.05,5.0,NW,11.5,20.7,N/A,,Overcast,320,2013-02-08 06:15:00
12:35 AM,40.5,36.5,86,30.06,5.0,NW,13.8,20.7,N/A,,Overcast,320,2013-02-08 06:35:00
12:55 AM,40.1,36.5,87,30.06,4.0,NW,10.4,23.0,N/A,,Overcast,320,2013-02-08 06:55:00
1:15 AM,40.1,36.5,87,30.07,4.0,NW,11.5,16.1,N/A,,Overcast,310,2013-02-08 07:15:00
1:35 AM,39.4,35.8,87,30.08,3.0,NW,6.9,-,N/A,,Overcast,320,2013-02-08 07:35:00
1:55 AM,39.2,36.0,88,30.09,3.0,NW,10.4,-,N/A,,Overcast,320,2013-02-08 07:55:00
2:15 AM,39.2,35.8,88,30.10,3.0,NW,11.5,18.4,N/A,,Overcast,320,2013-02-08 08:15:00
2:35 AM,39.2,35.8,88,30.10,3.0,NW,10.4,-,N/A,,Overcast,320,2013-02-08 08:35:00
2:55 AM,38.7,35.2,87,30.11,3.0,NW,9.2,18.4,N/A,,Overcast,320,2013-02-08 08:55:00
3:15 AM,38.5,35.1,87,30.11,3.0,NNW,8.1,17.3,N/A,,Overcast,330,2013-02-08 09:15:00
3:55 AM,37.8,34.2,87,30.13,4.0,NNW,11.5,19.6,N/A,,Overcast,330,2013-02-08 09:55:00
4:15 AM,37.4,33.8,87,30.14,3.0,NW,15.0,23.0,N/A,,Overcast,320,2013-02-08 10:15:00
4:35 AM,37.4,33.1,84,30.16,4.0,NNW,16.1,23.0,N/A,,Overcast,330,2013-02-08 10:35:00
4:55 AM,37.4,32.9,84,30.16,4.0,NW,10.4,17.3,N/A,,Overcast,320,2013-02-08 10:55:00
5:15 AM,37.4,32.5,83,30.17,5.0,NNW,13.8,19.6,N/A,,Overcast,340,2013-02-08 11:15:00
5:35 AM,37.4,32.4,82,30.18,5.0,NNW,6.9,-,N/A,,Overcast,330,2013-02-08 11:35:00
5:55 AM,37.4,32.0,81,30.19,5.0,NW,8.1,17.3,N/A,,Haze,320,2013-02-08 11:55:00
6:45 AM,37.4,32.0,81,30.23,5.0,North,18.4,-,N/A,,Overcast,350,2013-02-08 12:45:00
7:45 AM,37.4,32.0,81,30.26,7.0,North,16.1,-,N/A,,Overcast,350,2013-02-08 13:45:00
8:55 AM,37.4,30.2,75,30.30,10.0,NNW,16.1,-,N/A,,Overcast,330,2013-02-08 14:55:00
9:45 AM,37.4,30.2,75,30.31,10.0,NNW,9.2,17.3,N/A,,Overcast,330,2013-02-08 15:45:00
10:55 AM,39.2,30.2,70,30.32,10.0,NNW,13.8,-,N/A,,Overcast,340,2013-02-08 16:55:00
4:45 PM,35.6,28.4,75,30.39,10.0,NNE,3.5,-,N/A,,Overcast,20,2013-02-08 22:45:00
5:50 PM,35.6,28.4,75,30.36,10.0,NE,10.4,-,N/A,,Overcast,50,2013-02-08 23:50:00
6:50 PM,33.8,28.4,81,30.36,10.0,ENE,11.5,-,N/A,,Overcast,70,2013-02-09 00:50:00
7:50 PM,33.8,28.4,81,30.37,10.0,ENE,5.8,-,N/A,,Overcast,70,2013-02-09 01:50:00
8:50 PM,32.0,26.6,80,30.38,10.0,East,9.2,-,N/A,,Overcast,80,2013-02-09 02:50:00
9:15 PM,32.9,27.1,79,30.39,10.0,ENE,3.5,-,N/A,,Overcast,70,2013-02-09 03:15:00
9:35 PM,33.3,27.9,81,30.39,10.0,East,5.8,-,N/A,,Overcast,90,2013-02-09 03:35:00
9:50 PM,33.8,28.4,81,30.38,10.0,East,9.2,-,N/A,,Overcast,90,2013-02-09 03:50:00
9:55 PM,33.1,27.5,80,30.38,10.0,East,5.8,-,N/A,,Overcast,80,2013-02-09 03:55:00
10:15 PM,32.9,27.3,80,30.37,10.0,East,9.2,-,N/A,,Overcast,90,2013-02-09 04:15:00
10:35 PM,33.1,27.3,79,30.37,10.0,East,5.8,-,N/A,,Overcast,100,2013-02-09 04:35:00
10:55 PM,33.3,27.5,79,30.37,10.0,East,5.8,-,N/A,,Overcast,100,2013-02-09 04:55:00
11:15 PM,33.1,27.3,79,30.36,10.0,SE,5.8,-,N/A,,Overcast,130,2013-02-09 05:15:00
11:35 PM,32.9,27.3,80,30.36,10.0,ESE,9.2,-,N/A,,Overcast,120,2013-02-09 05:35:00
11:55 PM,33.3,27.5,79,30.36,10.0,East,6.9,-,N/A,,Overcast,90,2013-02-09 05:55:00